Regional Weather Roundup
Issued by NWS Wilmington, NC

Home | Current Version | Previous Version | Text Only | Print | Product List | Glossary On
Versions: 1 2 3 4 5 6 7 8 9 10 11 12 13 14 15 16 17 18 19 20 21 22 23 24 25 26 27 28 29 30 31 32 33 34 35 36 37 38 39 40 41 42 43 44 45 46 47 48 49 50
000
ASUS42 KILM 260213
RWRILM
RWRILM
REGIONAL HOURLY WEATHER ROUNDUP
NATIONAL WEATHER SERVICE WILMINGTON NC
1000 PM EDT MON MAY 25 2015

NOTE: "FAIR" INDICATES FEW OR NO CLOUDS BELOW 12,000 FEET WITH NO
SIGNIFICANT WEATHER AND/OR OBSTRUCTIONS TO VISIBILITY.

...............WFO WILMINGTON COUNTY WARNING AREA...............

......COASTAL NC AND SC COUNTIES......

CITY           SKY/WX    TMP DP  RH WIND       PRES   REMARKS
WILMINGTON     CLEAR     71  63  75 SE3       30.30R
N MYRTLE BEACH CLEAR     75  66  73 SE7       30.29R
MYRTLE BEACH   CLEAR     73  64  73 SE7       30.30R

......INLAND NC AND SC COUNTIES.......

CITY           SKY/WX    TMP DP  RH WIND       PRES   REMARKS
LUMBERTON      CLEAR     72  62  71 SE6       30.28R
ELIZABETHTOWN  CLEAR     71  62  73 CALM      30.29R
WHITEVILLE     CLEAR     71  64  78 CALM      30.29R
FLORENCE       CLEAR     73  65  75 SE9       30.26S
DARLINGTON     CLEAR     73  63  68 SE9       30.27S

....................REST OF NORTH CAROLINA......................

.........EASTERN NC.........

CITY           SKY/WX    TMP DP  RH WIND       PRES   REMARKS
CAPE HATTERAS  PTCLDY    73  61  65 S12       30.33R
JACKSONVILLE   CLEAR     66  57  72 CALM      30.31S
MOREHEAD CITY  PTCLDY    71  63  75 S3        30.32R
KENANSVILLE    CLEAR     69  60  73 CALM      30.31R
NEW BERN       CLEAR     68  60  75 S3        30.33R
ELIZABETH CITY CLEAR     70  60  70 S8        30.31R

.........CENTRAL NC.........

CITY           SKY/WX    TMP DP  RH WIND       PRES   REMARKS
RALEIGH DURHAM PTCLDY    74  55  51 S5        30.27R
ROCKY MOUNT    CLEAR     72  60  66 S6        30.29R
ROANOKE RAPIDS NOT AVBL
FAYETTEVILLE   CLEAR     73  60  63 S7        30.27R
HOFFMAN        CLEAR     74  63  69 S12       30.30R

.........WESTERN NC.........

CITY           SKY/WX    TMP DP  RH WIND       PRES   REMARKS
CHARLOTTE      PTCLDY    73  59  61 S6        30.25S
GREENSBORO     PTCLDY    72  57  59 S6        30.26R
HICKORY        NOT AVBL
BOONE          NOT AVBL
ASHEVILLE      NOT AVBL

.....................REST OF SOUTH CAROLINA.....................

.........EASTERN SC.........

CITY           SKY/WX    TMP DP  RH WIND       PRES   REMARKS
CHARLESTON     PTCLDY    73  67  81 E7        30.26S
BEAUFORT MCAS  FAIR      74  70  87 E7        30.25R
HILTON HEAD    PTCLDY    75  72  88 NE6       30.26R

.........CENTRAL SC.........

CITY           SKY/WX    TMP DP  RH WIND       PRES   REMARKS
COLUMBIA       PTCLDY    76  65  68 E6        30.24R
ORANGEBURG     PTCLDY    74  66  76 SE5       30.25R
SUMTER SHAW    NOT AVBL

.........WESTERN SC.........

CITY           SKY/WX    TMP DP  RH WIND       PRES   REMARKS
GREENVILLE     NOT AVBL
ROCK HILL      CLEAR     74  62  66 S3        30.25R
ANDERSON       CLOUDY    75  63  66 E6        30.22S
CLEMSON        NOT AVBL
GREENWOOD      CLOUDY    76  64  66 SE6       30.25R


...................COASTAL AND OFFSHORE REPORTS..................

................LOCAL PIERS AND NC RESERVE................


STATION/POSITION TIME  SKY/WX   TEMP    WIND        PRES    VSBY
                                AIR SEA DIR/SP/G
                 (UTC)          (F)     (DEG/KT/KT) (MB)    (MI)
JOHNY MRCER PIER 0100            75 77  160/  9/ 10 1025.4S
NC RESRV MASNBRO NOT AVBL
OCEAN CREST PIER 0202            74 77  100/ 13/ 14 1025.0R
SPRINGMAID  PIER 0100            74 77  100/  9/ 10 1025.2F


................COASTAL AND OFFSHORE BUOYS................


STATION/POSITION TIME  SKY/WX   TEMP    WIND        PRES    VSBY
                                AIR SEA DIR/SP/G
                 (UTC)          (F)     (DEG/KT/KT) (MB)    (MI)
DIMNDSHOAL 41025 0150            74 76  170/ 14/ 16 1027.0R
WVE H/P(F/S)=  2/ 7 WND WVE H/P(F/S)=  2/ 4 SWL H/P/D(F/S/D)=  2/ 90/ 7

CAPE LOOKOUT     0200            74     150/ 13/ 14 1026.4R
ONSLOW BAY 41036 NOT AVBL
5 WRITEBCH 41038 0108            75 77  170/ 10/ 14 1025.9S
MASONBORO  41110 0119               77                N/A
WVE H/P(F/S)=  3/ 5 WND WVE H/P(F/S)=  3/ 5

WILM HARBR 41108 0111               76                N/A
WVE H/P(F/S)=  2/ 7 WND WVE H/P(F/S)=  2/ 7

27WRITEBCH 41037 0100            72 77  160/ 10/ 12   N/A
FRYING PAN 41013 0150            76 74  120/ 10/ 10 1026.6R
WVE H/P(F/S)=  3/ 6 WND WVE H/P(F/S)=  2/ 4 SWL H/P/D(F/S/D)=  3/150/ 6

SUNST NRSH 41024 0108            74     140/ 10/ 14 1025.2F
CAPRS NRSH 41029 0108            75     110/  8/ 12 1024.9R
EDISTO     41004 0150            75 75  100/ 12/ 16 1024.3R
WVE H/P(F/S)=  4/ 7 WND WVE H/P(F/S)=  3/ 6 SWL H/P/D(F/S/D)=  2/ 7



..........OFFSHORE BUOYS BEYOND 100 NM OFFSHORE...........
.....IN A TRIANGLE---HAT TO BERMUDA TO BAHAMAS TO HAT.....


STATION/POSITION TIME  SKY/WX   TEMP    WIND        PRES    VSBY
                                AIR SEA DIR/SP/G
                 (UTC)          (F)     (DEG/KT/KT) (MB)    (MI)
150E HAT   41001 NOT AVBL
W BERMUDA  41048 0150            72 74   80/ 14/ 16 1027.2R
WVE H/P(F/S)=  4/ 6 WND WVE H/P(F/S)=  3/ 6 SWL H/P/D(F/S/D)=  2/ 60/ 8

ATLANTIC S 41049 0150            75 78   30/ 16/ 17 1021.5S
WVE H/P(F/S)=  5/ 6 WND WVE H/P(F/S)=  3/ 6 SWL H/P/D(F/S/D)=  3/350/ 8

E BAHAMAS  41046 0150            79 81   50/ 16/ 17 1020.3R
WVE H/P(F/S)=  4/ 8 WND WVE H/P(F/S)=  3/ 6 SWL H/P/D(F/S/D)=  2/ 80/ 8

NE BAHAMAS 41047 0150            77 79   60/ 17/ 23 1022.1R
WVE H/P(F/S)=  5/ 5 WND WVE H/P(F/S)=  5/ 5

120E CANVRL41010 0120            79 81  100/ 12/ 14 1023.3S

END


USA.gov is the U.S. government's official web portal to all federal, state and local government web resources and services.